User: anonymous   Login
Location: Unspecified
(0.0000°N, 0.0000°E)
Time: 01:32:33
(UTC+02:00)
Language:

Meteor 2-8 Rocket - Orbit

View from above orbital plane
View from above orbital plane
View from above satellite
View from above satellite

Ground track
Ground track

The orbit data is extracted from the following two-line orbital elements,

1 13114U 82025B   15241.06874020  .00000020  00000-0  48002-5 0  9998
2 13114 082.5422 006.4303 0014237 193.7638 292.2314 13.84645783689336
Epoch (UTC): 29 August 2015 01:38:59
Eccentricity: 0.0014237
inclination: 82.5422°
perigee height: 937 km
apogee height: 958 km
right ascension of ascending node: 6.4303°
argument of perigee: 193.7638°
revolutions per day: 13.84645783
mean anomaly at epoch: 292.2314°
orbit number at epoch: 68933

The dashed part of the orbit path shows where the satellite is in the earth's shadow,  

DLR